Wind_Speed
34 34 35 35 35 35 36 36 36 37 37 37 37 38 38 38 39 39 40 40 41 41 42 42 42 43 43 43 43 43 43 43 43 44 44 44 45 45 46 46 46 47 48 48 49 49 50 50 51 52 52 53 53 54 55 55 56 57 58 58 59 59 60 60 60 61 61 62 63 64 64 64 63 62 61 61 61 62 64 65 65 63 61 60 60 60
33 33 34 34 34 35 35 36 36 36 37 37 37 37 37 37 38 38 39 39 40 40 40 41 41 41 41 41 41 41 42 42 42 43 43 44 44 45 45 46 46 47 47 48 49 49 50 50 51 52 52 53 53 54 55 55 56 57 57 58 59 59 60 60 61 61 62 62 63 64 65 66 66 65 65 64 64 64 65 67 68 68 65 63 61 61
32 32 33 33 34 34 35 35 36 36 36 36 36 36 36 36 36 37 37 37 38 38 39 39 39 39 40 40 40 41 41 41 42 42 43 43 44 44 45 45 46 46 47 48 48 49 50 50 51 52 53 53 54 55 55 56 56 57 58 58 59 59 60 60 61 61 62 63 63 64 65 66 67 67 67 67 67 67 67 68 70 70 69 67 64 62
31 32 32 33 33 33 34 34 34 34 34 34 34 34 34 34 34 34 35 35 36 37 37 38 38 38 39 39 39 40 40 41 41 42 42 42 43 43 44 44 45 46 46 47 48 48 49 50 51 52 53 53 54 55 56 57 57 58 58 59 59 60 60 60 61 61 62 62 63 64 65 66 67 68 68 69 69 69 69 70 70 71 71 70 67 64
30 30 31 31 32 32 32 32 32 32 32 32 32 32 32 32 32 33 33 34 34 35 36 37 37 37 38 38 38 39 39 40 40 40 41 41 42 42 43 43 44 44 45 45 46 47 48 49 50 51 51 52 54 55 56 57 58 58 59 60 60 61 61 61 62 62 62 63 63 64 64 65 66 67 67 68 69 69 70 70 71 72 72 71 69 66
29 29 29 29 29 29 30 30 30 30 30 30 30 30 31 31 31 32 32 33 33 34 35 36 36 36 37 37 37 37 38 38 38 39 39 39 40 40 40 41 41 42 42 43 43 44 45 46 46 47 48 50 51 52 53 55 56 57 58 59 60 61 61 62 63 63 63 63 64 64 64 65 65 66 66 67 68 68 69 70 71 72 72 72 70 67
26 27 27 27 27 28 28 28 28 28 28 28 29 29 30 30 30 31 31 32 32 33 33 34 35 35 35 35 35 35 35 35 35 36 36 36 36 37 37 37 37 38 38 39 40 40 41 42 43 43 45 46 47 48 50 51 52 54 55 56 58 59 60 61 62 63 63 64 64 65 65 65 65 66 66 66 66 67 67 68 69 70 71 72 71 69
24 24 25 25 25 26 27 27 28 28 28 27 27 28 28 28 29 29 30 30 31 31 31 32 32 33 33 32 32 32 32 32 32 32 32 32 32 32 32 32 33 34 35 36 37 38 39 39 40 41 42 43 44 46 47 48 50 51 52 53 55 56 57 58 59 60 61 62 63 64 65 65 66 66 66 66 66 66 66 66 67 68 69 70 71 70
22 23 23 24 24 24 25 26 27 27 27 27 27 26 26 26 27 27 28 28 29 29 29 28 28 29 29 29 28 28 28 28 28 28 28 28 28 28 29 29 30 31 32 33 35 36 37 39 40 41 42 43 44 45 46 47 48 49 50 52 53 54 55 56 57 58 59 60 61 62 63 64 65 65 66 66 66 66 65 65 66 66 67 68 69 69
21 22 22 23 24 24 24 25 26 26 26 26 26 26 26 25 25 25 25 25 26 26 26 26 25 25 25 25 24 24 24 24 25 25 26 26 27 27 28 29 29 30 31 32 33 35 36 37 38 40 41 42 43 44 45 46 47 48 49 50 51 52 53 54 55 55 56 57 58 58 59 61 62 63 64 64 64 65 65 65 65 65 65 66 66 67
21 21 22 22 23 23 23 24 24 25 25 25 25 25 25 24 23 22 22 22 23 24 24 24 24 23 23 22 22 22 22 22 23 25 26 27 27 28 28 29 29 30 31 31 32 33 34 35 36 37 38 39 40 41 42 43 44 45 46 48 49 51 52 53 54 54 54 55 55 55 56 57 58 59 60 61 62 63 63 63 64 64 64 64 64 65
20 20 21 21 21 22 22 22 23 23 23 23 23 23 23 23 22 21 20 21 21 21 22 23 24 24 24 23 23 23 23 23 24 25 26 27 28 28 28 28 29 29 30 30 31 31 32 33 34 35 36 37 38 39 40 41 41 42 43 44 46 47 49 50 52 53 53 53 53 53 53 53 54 54 56 57 58 59 60 61 62 62 62 63 63 63
19 20 20 20 20 20 21 21 21 22 22 21 21 21 21 22 22 21 21 21 21 21 22 23 25 26 27 26 25 25 25 25 25 26 27 27 28 28 27 28 28 28 29 30 31 31 32 33 33 34 35 37 38 39 39 40 41 41 42 43 44 45 46 47 49 50 51 52 52 52 51 51 51 51 52 53 54 55 57 58 58 59 60 60 61 61
18 18 19 19 19 19 20 20 20 20 21 21 21 21 21 21 21 21 21 21 22 22 23 24 26 27 28 28 28 27 26 25 25 25 26 27 27 27 28 28 29 29 30 31 31 32 33 33 34 35 36 37 38 39 39 40 41 42 42 43 44 44 45 46 47 48 49 50 51 51 50 50 49 48 49 49 50 51 53 54 55 56 57 58 58 59
17 17 18 18 18 18 19 19 19 20 20 21 21 21 21 22 22 22 22 23 23 24 24 24 25 26 28 29 28 27 27 26 25 25 25 26 27 28 29 29 30 30 31 32 32 33 34 34 35 36 37 37 38 39 40 40 41 42 42 43 44 44 45 45 46 47 47 48 49 49 49 49 48 47 47 47 47 48 49 50 51 52 53 54 55 56
16 17 17 17 18 18 19 19 19 19 20 21 21 22 22 23 23 24 24 24 25 25 25 25 24 25 26 28 29 28 28 27 27 26 26 27 29 30 30 31 31 32 32 33 33 34 34 35 35 36 37 38 39 39 40 41 41 42 42 43 43 44 44 45 45 46 46 47 47 48 48 48 47 47 46 45 45 46 46 47 48 49 50 51 52 54
16 16 17 17 18 18 19 19 19 20 21 21 22 23 24 24 25 25 26 26 26 27 27 27 26 26 27 29 30 30 30 30 30 29 29 29 30 31 32 32 32 33 33 33 34 34 35 35 36 37 38 38 39 40 40 41 41 42 42 43 43 43 44 44 44 45 45 46 46 46 47 47 46 46 45 44 43 43 44 45 45 46 47 48 49 51
16 16 17 17 18 18 19 20 20 21 21 22 23 24 25 25 26 26 27 27 28 28 29 29 30 30 30 32 33 34 34 33 33 32 32 32 32 33 33 33 34 34 34 34 34 35 35 36 36 37 38 39 39 40 40 41 41 41 42 42 42 42 43 43 44 44 44 45 45 45 45 45 45 45 44 43 42 42 42 42 43 44 44 45 46 48
16 16 17 17 18 19 20 20 21 22 22 23 23 24 25 26 26 27 27 28 29 29 30 31 32 33 34 35 36 37 37 37 36 36 35 34 34 35 35 35 34 34 34 34 34 35 35 35 36 37 38 38 39 39 40 40 40 41 41 41 41 41 42 42 42 43 43 44 44 44 44 44 44 44 43 42 42 41 40 41 41 42 42 43 44 45
16 17 18 18 19 20 20 21 22 22 23 23 24 25 25 26 27 27 28 29 30 30 31 32 33 34 35 37 38 39 39 39 39 38 37 36 36 36 36 36 35 35 34 34 34 34 34 35 35 36 37 38 38 39 39 39 40 40 40 40 40 40 40 41 41 42 42 43 43 43 43 43 43 43 43 42 41 40 40 39 40 40 40 41 42 43
17 18 18 19 19 20 21 22 22 23 24 24 25 25 26 27 27 28 29 30 30 31 32 33 33 35 36 37 39 40 40 40 40 40 39 38 37 37 37 36 36 35 34 34 33 33 33 34 34 35 36 37 37 38 38 38 38 39 39 39 39 39 39 40 40 41 41 41 42 42 42 42 42 42 42 41 41 40 39 39 39 39 39 39 40 41
17 18 19 20 20 21 21 22 23 24 24 25 26 26 27 28 28 29 30 30 31 31 32 32 33 34 36 37 39 40 41 41 41 40 40 39 38 37 37 37 36 35 34 33 32 32 32 32 33 33 34 35 35 36 36 37 37 37 37 38 38 38 38 39 39 39 40 40 41 41 41 41 41 41 41 41 40 40 39 39 38 38 38 38 39 39
18 19 19 20 21 21 22 23 23 24 25 26 26 27 28 28 29 30 31 31 32 32 32 33 33 34 35 36 38 39 40 41 41 41 40 39 38 37 37 37 36 35 34 33 32 31 31 31 31 31 32 33 33 34 34 35 35 36 36 37 37 37 37 38 38 38 39 39 40 40 40 41 41 41 40 40 40 39 39 39 38 38 38 38 37 37
19 19 20 21 21 22 22 23 24 24 25 26 27 27 28 29 30 31 31 32 32 33 33 33 33 33 34 35 36 38 39 40 40 40 40 39 38 37 37 37 36 35 34 33 32 31 30 30 29 29 29 30 31 31 32 33 34 34 35 35 36 36 36 37 37 38 38 39 39 39 39 40 40 40 40 40 39 39 39 38 38 38 37 37 37 36
19 20 21 21 22 22 23 24 24 25 25 26 27 27 28 29 30 31 32 33 33 34 34 34 33 33 33 34 35 36 38 39 39 39 39 39 38 37 37 36 36 35 34 33 32 31 30 29 28 28 28 28 28 29 30 31 32 33 33 34 34 35 35 36 36 37 37 38 38 38 39 39 39 39 39 39 39 39 39 38 38 38 37 37 36 35
20 21 21 22 23 23 24 24 25 25 26 27 27 28 29 30 31 32 33 34 34 35 35 35 34 34 33 33 34 35 37 39 39 39 38 38 38 37 37 36 36 35 34 33 32 31 30 29 28 27 27 27 27 27 28 28 30 31 31 32 33 34 34 35 35 36 36 37 37 38 38 38 38 38 38 38 38 38 38 38 38 37 37 37 36 35
21 21 22 22 23 24 24 25 26 26 27 28 28 29 30 31 32 32 33 34 35 35 35 35 35 35 34 34 34 35 36 38 39 39 38 38 38 37 37 37 36 35 35 33 32 31 30 30 29 28 27 26 26 26 26 26 27 28 29 30 31 32 33 33 34 35 35 36 36 37 37 38 38 38 38 38 38 38 38 38 38 38 37 37 36 35
21 22 22 23 23 24 24 25 26 27 28 28 29 30 31 31 32 33 33 34 35 35 36 36 36 36 35 34 34 34 36 37 38 39 38 38 38 37 37 37 36 36 35 34 32 31 30 30 30 29 28 27 26 26 25 25 26 26 27 28 29 30 31 32 33 33 34 35 35 36 36 37 37 37 37 37 38 38 38 38 38 38 38 37 37 36
22 22 22 23 23 24 24 25 26 27 28 29 30 30 31 32 32 33 33 34 35 35 36 36 37 37 36 35 34 34 35 37 38 39 38 38 38 37 37 37 37 36 36 35 33 31 30 30 30 30 30 29 27 27 26 25 25 25 26 27 27 28 29 30 31 32 33 33 34 35 36 36 37 37 37 37 37 37 38 38 38 38 38 38 37 37
22 22 23 23 23 24 24 25 26 27 28 28 29 30 31 32 32 33 34 34 35 35 36 36 37 37 37 37 36 35 35 36 38 38 38 38 38 37 37 37 37 37 36 36 35 33 30 29 30 30 31 30 29 28 27 27 26 26 26 26 26 27 27 28 29 30 31 32 33 34 34 35 36 36 36 37 37 37 37 38 38 38 38 38 38 37
22 22 23 23 24 24 24 25 26 26 27 28 29 30 31 32 33 33 34 34 35 35 36 36 36 37 37 37 37 36 36 37 37 38 38 38 38 37 37 37 37 37 37 37 37 36 34 31 30 30 31 31 30 30 29 28 28 27 26 26 26 26 26 27 28 29 29 30 31 32 33 34 34 35 35 36 36 36 36 37 37 38 38 38 38 37
22 22 22 23 23 24 25 25 26 26 27 28 29 30 31 32 32 33 34 35 35 36 36 36 36 37 37 37 36 36 36 37 37 38 38 38 38 38 37 37 37 38 38 37 37 38 37 35 33 31 31 31 31 31 31 30 29 29 28 27 27 26 26 26 27 28 28 29 29 30 31 32 32 33 33 34 34 34 34 35 36 36 37 37 37 37
22 22 22 23 23 24 25 25 26 26 27 28 29 30 31 31 32 33 34 34 35 35 36 36 36 37 37 36 36 36 36 36 37 38 38 38 38 38 38 37 38 38 38 38 37 37 37 37 36 34 33 32 32 32 32 31 31 30 29 29 28 27 27 27 27 27 27 28 28 29 29 30 30 31 31 31 31 32 32 32 33 34 35 36 36 36
22 22 22 23 23 24 24 25 26 26 27 28 28 29 30 31 32 33 33 34 35 35 35 36 36 36 36 36 36 36 35 36 37 37 38 38 38 38 38 38 38 38 38 38 38 37 37 37 37 36 35 34 33 32 33 32 32 31 31 30 30 29 28 28 28 27 27 28 28 28 28 28 29 29 29 29 29 29 29 30 30 31 32 33 35 35
22 22 22 23 23 24 24 25 25 26 27 27 28 29 30 30 31 32 33 33 34 34 35 35 35 35 36 36 36 36 35 36 36 37 37 38 38 38 38 38 38 38 39 39 38 38 38 37 37 37 37 36 34 33 33 33 33 33 32 32 31 31 30 29 29 28 28 28 28 28 28 28 28 28 27 27 27 27 27 28 28 29 30 31 32 33
22 22 22 23 23 23 24 25 25 26 26 27 28 28 29 30 30 31 32 32 33 33 34 34 34 35 35 35 36 36 36 36 36 36 37 37 38 38 38 38 38 38 39 39 39 38 38 38 37 37 37 37 36 35 34 33 33 34 33 33 32 32 31 31 30 30 29 29 28 28 28 28 28 28 27 27 26 26 26 26 26 27 27 28 29 31
22 22 22 23 23 23 24 24 25 25 26 27 27 28 28 29 30 30 31 32 32 33 33 33 33 34 34 35 35 35 35 36 36 36 36 37 37 37 38 38 38 38 38 39 39 39 39 38 38 37 37 37 37 37 36 35 35 35 34 34 34 33 32 32 31 31 30 30 29 29 29 29 28 28 27 27 26 26 25 25 25 26 26 26 27 28
22 22 22 23 23 23 24 24 25 25 26 26 27 27 28 29 29 30 31 31 31 32 32 32 32 32 33 34 34 35 35 35 35 36 36 36 37 37 37 37 38 38 38 38 38 39 39 39 39 39 38 38 37 37 37 37 37 36 36 35 34 34 33 33 32 32 31 31 30 30 29 29 29 28 28 27 26 26 25 25 24 25 25 25 26 26
22 22 23 23 23 23 24 24 25 25 26 26 27 27 28 28 29 29 30 31 31 31 31 31 31 31 32 32 33 34 34 34 35 35 35 36 36 36 36 37 37 37 37 37 38 38 39 39 39 39 39 39 38 37 37 37 38 38 37 36 35 34 33 33 32 32 32 32 31 31 30 30 29 29 28 28 27 26 26 25 25 25 25 25 25 25
22 22 23 23 23 23 24 24 24 25 25 26 26 27 27 28 29 29 30 30 30 31 31 30 30 30 30 31 32 32 33 33 34 34 34 35 35 36 36 36 37 37 37 37 37 38 38 38 39 39 39 39 39 39 38 38 38 38 38 38 37 35 33 33 33 32 32 32 32 31 31 30 30 29 29 28 27 27 27 26 25 25 25 26 26 26
22 23 23 23 23 24 24 24 24 25 25 26 26 27 28 28 28 29 29 30 30 30 30 30 30 30 29 30 30 31 32 32 33 33 34 34 34 35 35 36 36 37 37 37 37 37 38 38 38 39 39 39 39 39 38 38 38 38 38 38 37 36 34 33 32 32 32 32 31 31 31 31 30 30 29 28 27 27 27 27 26 26 26 26 26 27
23 23 23 23 23 24 24 24 24 25 25 26 27 27 28 28 28 29 29 29 30 30 30 30 30 29 29 29 29 30 30 31 32 32 33 33 34 34 35 35 35 36 37 37 37 37 37 38 38 38 39 39 39 39 38 38 37 37 36 37 37 36 34 33 32 32 31 31 31 31 31 31 31 30 30 29 28 27 27 27 26 26 26 26 26 26
23 23 23 23 23 24 24 24 24 25 25 26 27 27 28 28 29 29 29 29 30 30 30 30 30 29 29 28 28 29 29 30 30 31 32 33 33 34 34 34 35 35 36 37 37 37 37 37 37 38 38 39 39 39 38 38 37 36 35 36 36 36 35 34 33 32 32 31 31 31 32 32 32 31 31 30 29 28 27 26 26 26 26 26 26 26
23 23 23 23 23 24 24 24 24 25 25 26 27 27 28 28 29 29 30 30 30 30 30 30 30 30 29 29 28 28 29 29 29 30 31 32 32 33 33 34 34 35 35 36 36 37 37 37 37 37 37 37 38 38 37 37 36 36 35 35 35 35 35 34 34 33 33 32 32 32 33 33 33 33 32 31 29 28 28 27 26 25 25 25 25 25
23 23 23 23 24 24 24 24 24 25 25 26 27 27 28 28 29 29 30 30 31 30 30 31 31 30 30 29 29 29 29 29 29 30 30 31 32 32 33 33 34 34 35 35 36 36 37 37 37 37 37 36 36 36 36 36 36 35 35 35 34 34 34 33 34 34 34 34 33 33 34 34 34 34 33 32 31 29 28 27 27 26 25 25 25 25
23 23 23 23 24 24 24 24 24 25 25 26 26 27 28 28 29 29 30 30 31 31 31 31 31 31 30 30 30 30 30 30 29 30 30 31 31 32 32 33 34 34 34 35 35 35 36 36 36 37 37 36 35 35 35 35 35 36 35 35 35 34 34 33 33 34 34 35 35 35 35 35 35 36 35 34 32 31 29 28 27 27 26 25 25 25
24 24 24 24 24 24 24 24 25 25 25 26 26 27 28 28 29 29 30 30 30 31 31 31 31 30 31 31 31 31 31 31 31 31 31 31 32 32 33 33 34 34 34 35 35 35 35 35 35 35 36 36 35 35 34 34 35 35 36 36 36 35 35 34 34 34 35 35 36 36 36 36 37 37 37 36 34 32 30 28 27 27 26 26 25 25
24 24 24 24 24 24 24 24 25 25 25 25 26 27 27 28 29 29 30 30 30 31 31 31 31 30 30 30 31 31 31 31 31 32 32 32 33 33 33 34 34 34 35 35 35 35 34 34 34 34 34 35 35 35 35 35 35 35 36 36 36 36 36 35 35 35 35 35 36 36 37 37 38 38 38 37 36 34 31 29 28 27 26 26 26 25
24 24 24 24 24 24 24 24 25 25 25 25 26 26 27 28 28 29 30 30 30 30 30 31 31 31 30 30 30 31 31 31 32 32 32 33 33 34 34 34 35 35 35 35 35 35 35 34 33 32 33 33 34 35 35 35 35 35 35 35 36 36 36 36 36 36 36 36 36 36 37 37 38 38 39 39 38 36 33 30 29 27 27 27 26 26
24 24 24 24 24 24 24 25 25 25 25 26 26 26 27 27 28 29 29 30 30 30 30 30 31 31 31 31 31 31 31 31 32 32 32 33 34 34 35 35 36 36 37 37 37 37 37 36 34 32 31 32 33 34 35 35 36 35 35 35 35 36 36 37 37 37 37 37 37 37 37 37 37 38 38 39 38 37 35 32 30 29 28 28 27 26
25 25 25 25 25 25 25 25 25 25 26 26 26 26 27 27 28 28 29 29 30 30 30 30 30 31 31 31 31 31 31 31 31 32 32 33 34 35 35 36 37 37 38 38 38 38 39 38 37 34 31 30 31 32 34 35 36 36 36 36 36 36 37 37 37 38 38 38 38 38 38 38 37 38 38 39 39 38 37 34 32 31 30 29 28 27
Wind_Direction
275 275 275 275 276 277 278 278 279 280 281 281 282 283 284 284 285 285 286 286 286 287 287 287 288 288 288 289 289 289 289 289 289 289 289 289 288 288 288 288 288 288 287 287 287 286 286 285 285 284 284 283 282 281 281 280 279 278 278 277 276 275 274 273 271 270 269 267 266 265 265 265 265 264 264 263 263 262 262 264 264 263 260 257 256 257
276 276 277 277 278 279 279 280 281 282 283 283 284 284 285 286 286 287 287 288 288 288 289 289 289 289 289 290 290 290 290 290 290 290 290 290 290 289 289 289 289 289 288 288 288 287 287 286 286 285 285 284 283 282 282 281 280 279 278 277 276 276 275 274 272 271 270 268 267 266 265 264 264 263 263 262 261 261 260 261 263 264 263 260 257 256
277 278 278 279 279 280 281 282 283 284 284 285 285 286 287 287 288 288 289 289 289 289 290 290 290 290 290 290 290 291 291 291 291 291 291 291 291 290 290 290 290 290 289 289 289 289 288 288 287 287 286 286 285 284 283 282 281 280 279 278 277 276 275 274 273 272 271 270 268 267 266 265 264 263 262 262 261 260 260 259 260 262 263 262 260 257
278 279 279 280 281 281 282 283 284 285 286 286 287 288 288 288 289 289 289 290 290 290 290 290 291 291 291 291 291 292 292 292 292 292 292 292 291 291 291 291 291 291 291 291 290 290 290 290 289 289 288 288 287 286 286 285 284 283 282 280 279 278 277 276 274 273 272 271 270 268 267 266 265 264 263 262 261 260 260 259 259 260 261 262 262 260
278 279 280 281 281 282 283 284 285 286 287 288 288 289 289 290 290 290 290 291 291 291 291 291 292 292 292 292 292 293 293 293 293 293 293 293 293 293 293 293 293 293 292 292 292 292 292 291 291 290 290 290 289 288 288 287 286 285 284 283 282 281 279 278 276 275 274 272 271 270 269 267 266 265 264 263 262 261 260 260 259 260 261 262 262 261
279 280 280 281 282 283 284 285 285 286 288 288 289 290 290 291 291 291 292 292 292 292 292 293 293 293 293 294 294 294 294 294 294 295 295 295 295 295 295 295 295 295 294 294 294 293 293 293 292 292 292 291 291 290 289 289 288 287 286 285 284 283 282 280 279 277 276 274 273 271 270 269 268 266 265 264 263 262 261 260 260 260 260 261 262 261
280 281 282 283 284 285 286 286 287 288 288 289 290 291 292 293 293 293 293 293 293 294 294 294 294 295 295 295 296 296 296 296 296 296 297 297 297 297 297 297 297 297 297 297 296 296 296 295 295 295 294 294 293 293 292 291 291 290 289 288 287 285 284 283 281 280 278 277 275 274 272 271 269 268 267 265 264 263 262 261 260 259 259 260 260 261
283 284 285 286 287 288 289 289 290 290 291 291 292 292 293 294 295 295 295 295 295 295 295 296 296 296 296 297 297 298 298 298 298 298 298 298 299 300 300 301 301 302 302 302 301 301 301 301 300 300 299 298 298 297 296 295 294 294 292 291 290 289 287 286 284 282 281 279 277 276 274 273 271 270 268 267 266 264 263 262 261 260 259 259 259 260
286 287 288 288 289 290 291 292 292 293 293 294 294 294 294 295 296 297 297 298 297 297 297 296 296 296 297 297 298 299 299 299 299 299 300 301 302 303 304 305 306 306 307 307 307 307 306 306 305 305 304 303 302 301 300 299 298 297 296 295 294 293 291 289 288 286 284 282 280 278 277 275 274 272 271 269 268 266 265 263 262 261 260 259 259 259
289 290 291 291 292 292 293 294 294 295 296 297 297 297 297 297 297 297 298 298 298 298 297 296 295 295 295 296 297 299 300 301 303 303 304 305 306 308 308 309 309 309 310 310 310 309 309 309 308 307 306 305 304 303 302 301 300 299 298 298 297 296 294 293 291 290 288 286 284 282 280 278 276 274 273 271 270 268 267 265 263 262 260 259 259 258
291 292 293 294 294 295 295 296 296 297 299 300 300 300 300 299 299 298 298 296 296 296 297 297 296 296 296 297 299 301 303 306 307 309 309 310 311 312 312 312 312 312 311 311 311 311 311 311 310 310 309 308 307 306 305 304 302 301 300 299 298 297 296 295 294 293 292 290 288 286 283 281 279 277 275 274 272 271 269 267 265 264 262 261 259 258
293 294 295 295 296 297 297 298 298 299 300 300 301 301 300 300 300 300 299 298 297 297 299 301 301 302 302 304 306 308 310 312 314 315 314 314 314 315 315 315 315 315 315 314 314 314 315 314 314 314 313 312 311 310 309 308 307 305 304 302 301 300 298 297 297 296 295 293 292 290 288 286 283 281 278 276 275 273 271 270 268 266 264 262 261 259
294 295 296 296 297 297 298 299 299 299 300 299 300 300 300 301 302 303 304 304 304 305 307 310 310 310 311 312 314 316 318 319 319 319 319 318 317 318 319 319 319 319 319 319 319 319 319 319 318 318 317 316 315 314 313 312 311 310 309 307 305 303 302 300 299 298 297 296 295 294 292 290 288 285 282 280 278 276 274 272 271 269 267 265 263 261
296 296 297 298 298 298 298 299 300 300 300 301 301 302 303 304 306 309 311 312 314 315 317 320 320 319 318 318 320 321 322 322 323 323 322 321 321 322 323 323 323 322 322 321 321 321 321 320 320 319 318 317 316 316 315 314 313 312 311 310 309 307 305 304 302 301 299 298 298 297 296 294 292 290 287 284 281 279 277 275 273 271 269 267 265 263
297 298 299 300 300 300 301 302 303 303 303 305 306 308 309 311 313 315 318 320 321 322 324 326 326 324 321 321 321 322 322 323 324 325 325 324 324 324 325 325 325 324 323 323 322 322 321 321 320 319 318 318 317 316 316 315 314 313 312 311 310 309 307 306 304 303 302 301 300 299 298 297 296 294 292 289 286 283 281 278 276 274 272 270 267 265
299 300 302 302 303 304 304 306 307 308 309 311 313 315 317 318 319 321 323 324 324 325 326 326 325 324 321 320 320 321 322 323 325 326 328 327 326 326 327 327 327 326 326 325 324 323 322 321 320 319 319 318 318 317 316 315 315 314 313 312 311 310 308 307 306 304 303 302 301 301 300 299 299 297 296 293 291 288 285 282 280 278 275 273 270 267
303 304 305 306 307 308 309 311 312 314 316 317 319 321 322 323 324 325 326 327 327 327 326 326 325 323 322 320 320 321 323 324 326 328 330 330 329 329 329 330 330 329 329 327 326 324 323 322 320 320 319 318 318 318 317 316 315 315 314 312 311 310 309 307 306 305 304 303 303 302 301 301 300 300 299 297 295 292 289 287 284 282 279 276 274 271
307 308 310 311 312 313 314 316 318 319 321 322 324 325 326 327 327 328 329 329 329 328 327 327 326 326 325 324 323 324 325 326 328 330 331 331 331 331 332 332 332 332 330 329 327 325 324 322 321 320 319 319 318 318 317 317 316 315 314 313 311 310 309 307 306 305 304 304 303 303 302 302 301 301 301 300 298 296 293 291 288 286 283 280 277 274
310 312 313 315 316 317 318 320 322 324 325 326 327 328 329 329 329 330 330 329 329 328 328 328 328 328 327 326 326 326 327 328 329 330 331 332 332 332 333 333 333 333 332 330 328 326 324 322 321 320 320 319 318 318 317 317 316 315 314 313 312 310 309 307 306 305 304 304 303 303 302 302 302 302 302 301 300 299 297 294 292 290 287 284 281 278
314 315 317 319 321 322 323 324 325 326 328 328 329 330 331 331 330 330 329 328 328 328 328 329 329 329 329 328 327 327 327 328 328 329 330 332 332 332 333 333 333 333 332 330 328 326 324 323 321 320 320 319 318 318 317 317 316 315 314 313 312 310 309 307 306 305 304 304 303 303 302 302 302 302 302 302 302 301 300 298 296 293 291 289 286 282
317 319 320 322 324 326 326 327 328 329 330 331 331 332 332 331 330 329 328 328 328 329 329 329 330 330 329 328 327 327 326 327 327 328 329 331 332 332 332 333 333 332 331 330 328 327 325 323 322 321 320 319 319 318 317 316 316 315 314 313 312 310 309 307 306 305 304 303 302 302 302 302 302 302 302 302 302 302 301 300 299 297 295 293 290 287
321 323 324 325 327 329 329 330 330 331 332 333 333 332 332 331 330 329 329 329 329 330 330 331 331 330 330 329 327 326 326 326 326 327 328 330 330 331 331 332 332 331 330 329 328 326 325 324 323 322 321 320 319 318 317 316 315 315 314 313 311 310 308 307 306 304 303 303 302 301 301 301 301 301 301 302 302 302 303 302 301 300 299 297 295 293
324 325 327 328 330 331 331 332 333 334 334 334 333 332 331 331 330 329 330 330 330 331 332 332 332 331 331 330 328 326 324 325 325 326 327 329 329 330 330 330 330 330 329 329 327 326 325 325 324 323 322 320 319 318 317 316 315 314 313 312 311 309 308 306 305 304 303 302 301 300 300 300 300 300 301 301 302 303 303 303 303 303 302 301 299 298
326 327 329 330 331 333 333 334 334 335 335 335 334 333 332 332 331 331 331 331 332 332 333 333 333 332 331 330 328 325 324 324 324 325 327 327 328 329 329 329 329 329 328 328 327 326 325 325 325 324 323 321 319 318 317 315 314 314 313 311 310 309 307 306 305 303 302 301 300 299 299 299 299 299 300 300 301 302 303 304 304 304 304 303 303 301
328 329 331 332 333 334 335 335 335 335 335 335 334 334 333 333 333 333 333 333 333 334 334 333 333 333 332 330 328 326 324 323 324 325 326 326 327 328 329 329 329 328 327 327 327 326 325 325 325 325 324 322 321 319 317 316 315 314 312 311 310 309 307 306 304 303 302 300 299 298 298 297 298 298 298 299 300 302 303 303 304 305 305 305 305 304
329 331 332 333 334 335 335 335 335 335 335 334 334 334 334 335 335 334 334 334 334 334 334 334 334 333 332 331 329 327 325 324 324 325 325 326 327 328 328 329 328 327 327 327 327 326 325 325 325 325 325 324 323 321 319 317 315 314 313 311 310 309 307 306 304 303 301 300 299 297 297 296 296 297 297 298 299 300 302 303 304 305 306 306 306 306
330 331 332 333 334 334 334 335 335 335 334 335 335 335 336 336 336 336 336 335 335 335 335 334 334 333 333 333 331 329 326 325 324 325 326 326 327 328 328 328 328 327 326 326 326 327 326 326 326 326 326 325 325 324 321 319 316 314 313 311 310 309 307 306 304 303 301 299 298 296 296 295 295 295 296 297 298 299 300 302 303 304 305 306 307 307
329 330 331 332 333 333 334 334 334 334 334 335 335 336 336 337 337 337 337 336 336 335 335 335 334 334 334 334 333 331 328 326 325 325 326 327 327 328 328 328 328 327 326 325 326 327 327 327 327 327 327 327 327 326 324 321 318 315 313 312 310 309 307 306 304 302 300 298 297 295 294 294 293 293 294 295 296 297 299 300 302 303 304 305 306 307
328 329 330 330 331 332 333 333 334 334 334 335 335 336 336 337 337 337 337 336 336 336 336 335 335 334 334 334 333 332 329 327 326 326 326 327 327 328 328 328 328 327 327 325 325 325 327 329 329 328 328 329 329 328 326 323 319 316 314 312 311 309 307 306 304 302 300 298 296 295 293 292 292 292 292 293 294 296 297 298 300 301 302 304 305 306
326 327 328 329 330 331 331 332 333 333 334 334 335 336 336 337 337 337 337 337 337 337 336 336 335 335 334 334 333 333 331 328 327 327 327 327 327 328 328 328 328 328 328 327 325 325 326 328 330 330 329 330 330 330 328 325 322 318 315 313 311 310 308 306 304 302 300 298 296 294 293 292 291 291 291 292 293 294 295 296 298 299 300 301 303 304
323 324 325 326 328 329 330 331 332 333 333 334 335 335 336 337 337 337 337 337 338 338 337 337 336 336 335 334 334 333 332 329 328 327 327 327 327 328 329 329 328 328 329 329 328 327 327 327 329 330 330 330 331 331 330 328 325 321 318 315 313 311 308 306 304 302 300 298 297 295 293 292 291 291 291 291 292 293 294 295 296 297 298 299 300 301
320 321 323 324 326 327 329 330 331 332 333 334 334 335 336 337 337 338 338 338 338 338 338 338 337 336 336 335 335 334 332 330 329 328 328 328 328 328 329 329 328 328 329 329 329 329 329 328 329 329 329 330 331 331 331 329 327 324 321 318 315 313 310 307 305 303 301 299 297 295 294 292 292 291 291 291 291 292 293 294 294 295 296 297 298 299
317 319 321 323 324 326 327 329 330 331 332 333 334 335 336 337 337 338 338 338 338 338 338 338 337 337 336 335 334 334 333 331 330 329 328 328 328 329 329 329 328 328 328 328 329 329 329 329 329 329 329 330 331 331 331 330 328 326 324 321 319 316 313 310 307 305 303 300 298 296 295 293 293 292 292 291 292 292 293 293 294 294 295 296 297 298
315 317 319 321 322 324 325 327 328 330 331 332 334 335 336 337 337 338 338 338 338 339 338 338 337 337 336 335 334 334 333 332 330 330 329 329 328 329 329 329 329 328 327 328 328 328 329 329 329 329 329 329 330 331 331 330 328 327 325 324 322 320 318 315 311 308 306 303 301 299 297 295 294 293 293 293 293 293 293 293 294 294 295 296 297 298
313 315 317 319 320 322 324 325 327 328 330 331 333 334 335 336 337 337 338 338 338 338 338 338 337 337 336 335 334 334 333 332 331 330 330 329 329 329 329 329 329 328 328 327 328 328 328 329 329 329 329 328 328 329 330 330 329 327 326 325 324 323 321 319 316 313 310 308 305 303 301 299 298 297 296 295 295 295 295 294 295 295 295 296 297 298
311 312 314 316 318 319 321 323 325 327 328 330 331 333 334 335 336 336 337 337 338 338 338 338 337 337 336 335 334 334 333 332 331 331 330 329 329 329 329 329 329 328 328 328 328 328 328 328 329 329 329 328 328 329 329 329 328 327 326 325 324 324 323 321 319 317 315 312 310 308 306 304 302 301 300 299 298 298 297 296 296 295 295 296 297 298
309 310 311 313 315 317 319 321 323 325 327 328 330 331 333 334 335 335 336 336 337 337 337 338 338 337 336 335 334 334 333 333 332 331 330 330 329 329 329 328 328 328 328 328 328 328 328 328 328 328 329 329 329 329 329 328 327 326 325 325 325 325 324 322 320 319 317 315 314 312 310 309 307 306 305 303 302 300 299 297 296 295 294 295 295 296
306 307 309 311 313 315 317 320 322 323 325 327 328 330 331 332 333 334 335 335 336 336 337 337 337 337 336 335 334 334 333 333 332 331 331 330 330 329 329 328 328 328 328 328 328 329 329 329 329 330 329 329 329 330 330 330 328 327 325 325 325 325 324 322 320 319 317 316 315 314 313 312 311 310 309 308 306 304 302 299 297 295 294 293 293 294
305 306 308 309 312 314 316 318 320 321 323 325 326 328 329 331 332 333 334 334 335 335 336 336 336 336 336 335 334 333 333 332 332 331 330 330 330 329 329 328 328 328 328 329 329 330 330 330 331 331 331 330 330 330 330 330 329 327 325 324 324 324 323 322 320 318 317 316 315 314 313 312 312 312 312 312 311 310 307 304 301 299 296 294 292 291
303 305 306 308 310 312 314 316 318 320 322 323 325 326 328 329 331 332 332 333 333 334 334 335 335 336 335 334 333 333 332 332 331 331 330 330 330 329 329 329 329 328 328 329 330 331 331 331 332 332 331 331 331 331 331 331 329 327 325 324 323 323 323 322 320 318 317 316 315 314 313 313 313 313 314 314 315 315 314 311 309 306 303 300 297 294
302 304 305 307 309 311 313 315 317 318 320 322 323 325 326 328 329 330 331 332 332 332 333 333 334 334 335 334 333 333 332 332 331 331 330 330 330 329 329 329 329 329 329 329 330 331 332 332 332 332 332 332 331 331 331 330 329 327 326 324 323 322 322 321 320 318 317 316 315 314 314 314 314 314 315 316 317 317 317 316 315 312 310 307 304 301
301 303 304 306 308 309 311 313 315 317 319 321 322 323 325 326 327 328 329 330 330 331 331 332 332 333 333 333 333 332 332 332 331 330 330 330 330 330 330 329 329 329 329 330 330 331 332 333 333 334 333 332 332 331 330 329 328 326 325 323 322 321 320 320 319 318 318 317 317 316 315 315 315 315 316 316 318 318 318 319 318 316 314 312 309 306
301 302 303 305 307 309 310 312 314 316 318 319 321 322 323 325 326 327 328 329 329 330 330 331 331 332 332 332 332 332 332 331 331 330 330 330 330 330 330 330 330 330 330 330 330 331 332 333 334 334 334 333 332 330 329 328 327 325 324 322 321 321 320 320 320 319 319 319 319 319 318 317 317 316 317 317 318 318 319 319 318 317 316 313 311 308
301 302 303 304 306 308 310 312 313 315 317 318 320 321 322 323 325 326 327 328 328 329 329 330 330 330 331 331 331 331 331 331 331 330 330 329 329 329 329 329 329 330 330 330 331 331 332 333 334 334 334 333 332 330 329 327 326 324 323 322 322 322 323 323 322 322 321 321 321 321 321 319 318 317 317 317 318 318 319 319 318 317 316 313 311 309
300 301 303 304 306 308 309 311 312 314 316 317 319 320 321 322 323 325 325 327 327 328 328 329 329 330 330 330 330 330 330 330 330 330 329 329 329 329 329 329 329 329 329 330 331 331 332 334 334 334 334 333 332 330 329 327 325 324 323 323 322 323 324 324 325 325 324 323 323 323 322 321 320 319 318 317 318 318 319 319 319 318 316 314 311 309
301 302 303 304 306 307 309 310 312 313 315 316 318 319 320 321 322 323 324 325 326 327 327 328 329 329 329 329 329 329 329 329 329 329 329 328 328 328 328 328 329 329 329 330 330 331 332 333 334 334 334 333 332 331 329 328 326 325 324 324 324 324 325 326 326 326 325 324 324 323 322 321 320 319 319 318 318 319 319 320 320 318 317 314 312 310
301 302 303 305 306 307 308 310 311 313 314 316 317 318 319 320 321 322 323 324 325 326 327 327 328 328 328 328 328 329 329 329 329 329 328 328 328 328 328 328 328 328 329 329 330 331 332 333 334 334 334 333 333 331 330 329 327 327 326 325 325 325 326 326 326 325 324 323 323 323 322 322 321 320 319 318 318 318 319 320 320 319 318 315 313 310
302 302 303 304 306 307 308 310 311 312 314 315 316 317 318 319 320 321 322 323 324 325 326 326 327 327 327 327 328 328 328 328 329 328 328 328 327 327 327 328 327 328 328 329 329 330 331 332 334 335 335 335 334 333 332 331 329 328 327 326 326 325 325 325 324 323 322 322 322 322 322 321 321 320 319 318 318 318 319 320 320 320 319 316 314 312
302 302 303 304 305 307 308 309 311 312 313 314 315 317 317 318 319 320 321 322 323 324 325 325 326 326 326 326 326 327 327 327 328 328 328 327 327 327 327 327 327 327 327 328 328 329 329 331 333 336 337 337 336 335 334 332 331 329 327 326 326 325 324 323 322 322 321 321 321 321 320 320 320 319 319 318 318 318 319 320 321 322 320 318 315 313
302 303 303 305 306 307 308 309 310 312 313 314 315 316 317 317 318 319 320 321 322 323 324 324 325 325 325 325 325 326 326 326 327 327 327 327 327 327 327 327 327 327 327 328 328 328 329 330 332 336 339 340 339 338 336 333 331 329 327 326 325 324 323 322 321 321 320 320 319 319 319 319 319 319 318 319 319 319 319 320 322 323 322 320 317 314
302 303 304 305 306 307 308 309 310 311 313 313 314 315 316 317 318 318 319 320 321 322 323 324 324 324 324 324 324 325 325 326 326 326 326 326 326 327 327 327 327 328 328 328 328 329 329 329 331 334 338 341 341 340 337 334 331 329 327 326 325 324 323 321 320 319 319 318 318 318 318 318 318 319 319 320 320 320 320 320 322 323 323 322 319 316
Height
3067 3066 3066 3066 3066 3065 3064 3064 3064 3063 3063 3063 3062 3061 3060 3060 3059 3058 3057 3056 3056 3055 3054 3053 3052 3052 3051 3050 3049 3048 3047 3046 3045 3044 3043 3043 3042 3040 3039 3038 3038 3037 3035 3034 3033 3033 3032 3031 3030 3029 3028 3027 3026 3026 3025 3024 3023 3023 3022 3022 3021 3021 3021 3020 3020 3020 3020 3020 3020 3020 3020 3020 3021 3021 3022 3022 3022 3023 3023 3023 3023 3023 3024 3025 3026 3027
3064 3064 3063 3063 3063 3063 3062 3061 3061 3061 3060 3060 3059 3058 3058 3057 3056 3055 3054 3053 3053 3052 3051 3050 3049 3048 3048 3047 3046 3045 3044 3043 3042 3041 3040 3039 3038 3037 3036 3035 3034 3033 3032 3031 3030 3028 3028 3027 3026 3024 3023 3023 3022 3021 3020 3019 3019 3018 3017 3017 3016 3016 3015 3015 3015 3015 3014 3014 3014 3014 3014 3014 3015 3015 3015 3016 3016 3017 3017 3017 3017 3018 3018 3020 3021 3022
3062 3061 3061 3060 3060 3060 3059 3058 3058 3058 3057 3057 3056 3056 3055 3055 3054 3053 3052 3051 3050 3049 3048 3047 3046 3045 3044 3044 3043 3042 3041 3040 3039 3038 3037 3036 3035 3034 3033 3032 3030 3029 3028 3027 3026 3025 3023 3023 3021 3020 3019 3018 3017 3016 3015 3014 3014 3013 3012 3012 3011 3011 3010 3010 3009 3009 3009 3008 3008 3008 3008 3008 3008 3008 3009 3009 3010 3010 3010 3011 3011 3012 3013 3014 3016 3017
3059 3059 3058 3058 3058 3057 3057 3056 3056 3055 3055 3054 3053 3053 3053 3052 3051 3050 3049 3048 3047 3046 3045 3044 3043 3042 3042 3041 3040 3039 3038 3037 3036 3035 3034 3033 3032 3030 3029 3028 3027 3026 3024 3023 3022 3021 3020 3018 3017 3016 3015 3013 3013 3011 3010 3009 3008 3008 3007 3006 3006 3005 3005 3004 3004 3003 3003 3003 3002 3002 3002 3002 3002 3002 3002 3003 3003 3003 3004 3005 3005 3006 3007 3009 3010 3012
3057 3057 3056 3056 3055 3055 3054 3054 3053 3053 3052 3052 3051 3051 3050 3049 3049 3048 3047 3046 3045 3043 3042 3041 3040 3039 3039 3038 3037 3036 3035 3034 3033 3032 3031 3029 3028 3027 3026 3025 3023 3022 3021 3020 3018 3017 3016 3015 3013 3012 3011 3009 3008 3007 3006 3004 3003 3002 3002 3001 3000 2999 2999 2998 2998 2998 2997 2997 2997 2996 2996 2996 2995 2995 2996 2996 2996 2997 2998 2998 2999 3000 3001 3003 3004 3006
3055 3055 3054 3054 3053 3053 3052 3052 3051 3051 3050 3050 3049 3048 3048 3047 3046 3045 3044 3043 3043 3041 3040 3039 3038 3037 3036 3035 3034 3033 3032 3031 3030 3029 3028 3026 3025 3024 3023 3022 3020 3019 3018 3017 3015 3014 3013 3011 3010 3008 3007 3006 3004 3003 3001 3000 2999 2998 2996 2995 2994 2993 2993 2992 2992 2991 2991 2991 2990 2990 2990 2989 2989 2989 2989 2989 2990 2990 2991 2992 2993 2993 2994 2995 2997 2999
3053 3053 3052 3052 3051 3051 3050 3049 3049 3048 3048 3048 3047 3046 3045 3044 3043 3043 3042 3041 3040 3039 3038 3037 3035 3034 3033 3033 3032 3031 3030 3028 3027 3026 3025 3023 3023 3021 3020 3019 3018 3016 3015 3013 3012 3011 3009 3008 3007 3005 3004 3002 3001 2999 2998 2996 2994 2993 2992 2990 2989 2988 2987 2986 2986 2985 2984 2984 2983 2983 2983 2983 2983 2983 2983 2983 2983 2984 2984 2985 2986 2987 2988 2988 2990 2991
3051 3050 3050 3050 3049 3048 3048 3047 3046 3046 3046 3045 3045 3044 3043 3043 3042 3040 3039 3038 3038 3037 3036 3034 3033 3032 3031 3030 3029 3028 3027 3026 3025 3024 3023 3021 3020 3019 3018 3017 3015 3013 3012 3010 3009 3007 3006 3004 3003 3002 3000 2999 2997 2996 2994 2992 2991 2989 2988 2986 2984 2983 2982 2981 2980 2979 2978 2978 2977 2977 2977 2976 2976 2976 2976 2977 2977 2978 2978 2978 2979 2980 2981 2982 2983 2984
3049 3048 3048 3048 3047 3046 3046 3045 3044 3043 3043 3043 3042 3042 3042 3041 3040 3038 3037 3036 3035 3034 3033 3033 3032 3030 3029 3028 3028 3027 3025 3024 3023 3022 3020 3019 3018 3017 3016 3014 3013 3011 3009 3008 3006 3004 3003 3001 2999 2998 2997 2995 2993 2992 2990 2989 2987 2985 2984 2982 2980 2978 2977 2976 2974 2973 2973 2972 2971 2971 2970 2970 2969 2969 2970 2970 2970 2971 2971 2972 2973 2973 2974 2975 2976 2977
3047 3047 3046 3045 3045 3044 3044 3043 3042 3041 3040 3040 3039 3039 3039 3038 3038 3037 3036 3035 3033 3032 3031 3030 3030 3029 3028 3027 3026 3025 3024 3022 3021 3019 3018 3017 3016 3014 3013 3012 3010 3008 3007 3005 3003 3002 3000 2998 2997 2995 2993 2992 2990 2989 2987 2986 2984 2982 2980 2978 2977 2975 2973 2971 2970 2968 2968 2967 2966 2965 2964 2964 2963 2963 2963 2963 2963 2964 2964 2965 2965 2966 2967 2968 2969 2970
3045 3045 3044 3043 3043 3042 3042 3041 3040 3039 3038 3038 3037 3036 3036 3036 3036 3035 3035 3033 3032 3031 3029 3028 3027 3027 3026 3026 3024 3023 3022 3020 3019 3017 3016 3014 3013 3012 3010 3009 3008 3006 3005 3003 3002 3000 2998 2997 2995 2993 2991 2989 2988 2986 2984 2983 2981 2979 2977 2975 2973 2971 2969 2968 2966 2964 2963 2962 2961 2960 2959 2958 2958 2958 2958 2957 2957 2957 2958 2958 2959 2959 2960 2962 2963 2964
3043 3043 3042 3042 3041 3040 3039 3038 3038 3037 3037 3036 3035 3035 3034 3033 3033 3033 3033 3032 3030 3029 3028 3026 3024 3023 3023 3022 3021 3020 3019 3018 3016 3015 3013 3012 3011 3009 3008 3007 3005 3004 3002 3001 2999 2998 2996 2994 2992 2990 2988 2986 2984 2982 2981 2979 2977 2976 2974 2972 2970 2968 2966 2964 2962 2960 2959 2958 2956 2955 2954 2954 2953 2953 2952 2952 2952 2951 2952 2952 2952 2953 2954 2955 2956 2957
3042 3041 3040 3040 3039 3038 3038 3037 3036 3035 3035 3034 3034 3033 3032 3031 3031 3030 3029 3028 3027 3026 3025 3023 3021 3019 3018 3018 3017 3016 3016 3015 3014 3013 3011 3009 3008 3007 3006 3004 3003 3001 2999 2998 2996 2994 2992 2990 2988 2987 2985 2983 2981 2979 2977 2975 2973 2972 2970 2968 2967 2965 2963 2961 2959 2957 2955 2954 2953 2951 2950 2950 2949 2948 2948 2947 2947 2947 2946 2946 2947 2947 2948 2948 2950 2951
3040 3039 3039 3038 3038 3037 3036 3036 3035 3034 3033 3032 3032 3031 3030 3029 3028 3027 3026 3025 3024 3023 3022 3020 3018 3016 3014 3013 3013 3013 3013 3013 3012 3011 3009 3007 3005 3004 3003 3001 2999 2998 2996 2994 2992 2990 2988 2987 2985 2983 2981 2979 2977 2976 2974 2972 2970 2968 2967 2965 2963 2962 2960 2958 2956 2954 2952 2951 2949 2948 2947 2946 2945 2944 2944 2943 2943 2942 2942 2942 2942 2942 2942 2943 2943 2944
3038 3038 3037 3037 3036 3035 3034 3034 3033 3032 3031 3030 3029 3028 3027 3026 3025 3024 3023 3022 3021 3020 3019 3018 3016 3014 3012 3011 3010 3010 3010 3010 3009 3008 3007 3005 3003 3001 2999 2998 2996 2994 2993 2991 2989 2987 2985 2983 2981 2979 2977 2976 2974 2972 2971 2969 2967 2966 2964 2962 2960 2958 2957 2955 2953 2951 2949 2948 2946 2945 2943 2943 2942 2941 2940 2939 2939 2938 2938 2937 2937 2937 2937 2937 2938 2938
3037 3036 3036 3035 3034 3033 3033 3032 3031 3030 3029 3028 3026 3025 3024 3023 3022 3021 3020 3019 3018 3017 3016 3016 3015 3014 3012 3010 3008 3008 3007 3006 3006 3005 3004 3002 2999 2998 2996 2995 2993 2991 2989 2988 2986 2983 2982 2979 2978 2976 2974 2972 2971 2969 2967 2966 2964 2963 2961 2959 2957 2955 2953 2952 2950 2948 2946 2944 2943 2942 2941 2939 2938 2938 2937 2936 2935 2934 2934 2933 2933 2933 2932 2932 2932 2933
3035 3034 3034 3033 3032 3032 3031 3030 3028 3028 3026 3025 3023 3022 3021 3020 3019 3018 3017 3016 3015 3014 3013 3013 3012 3011 3009 3008 3006 3004 3003 3002 3001 3001 3000 2998 2996 2994 2993 2991 2989 2988 2986 2984 2982 2980 2978 2976 2974 2972 2970 2969 2967 2966 2964 2963 2961 2959 2958 2956 2954 2953 2951 2949 2947 2945 2943 2942 2940 2939 2938 2936 2935 2934 2933 2933 2932 2931 2930 2929 2929 2928 2928 2928 2927 2927
3033 3033 3032 3031 3030 3029 3028 3027 3026 3025 3024 3023 3021 3020 3019 3018 3016 3015 3014 3013 3013 3012 3010 3009 3008 3006 3005 3003 3001 2999 2998 2997 2996 2996 2995 2994 2992 2990 2989 2988 2986 2984 2983 2981 2979 2977 2975 2973 2971 2969 2967 2966 2964 2963 2961 2960 2958 2957 2955 2953 2952 2950 2948 2946 2944 2942 2941 2939 2938 2936 2935 2933 2932 2931 2930 2929 2929 2928 2927 2926 2925 2924 2924 2923 2923 2923
3032 3031 3030 3029 3028 3027 3026 3025 3024 3023 3022 3020 3019 3018 3017 3016 3014 3013 3013 3011 3010 3009 3008 3006 3004 3002 3000 2998 2996 2994 2993 2992 2991 2991 2991 2990 2988 2987 2985 2984 2983 2982 2980 2978 2976 2974 2973 2970 2968 2967 2965 2963 2962 2960 2958 2957 2955 2954 2952 2951 2949 2947 2945 2943 2942 2940 2938 2936 2935 2933 2932 2931 2929 2928 2928 2926 2926 2925 2924 2923 2922 2921 2920 2919 2919 2918
3030 3029 3028 3027 3026 3025 3024 3023 3022 3020 3019 3018 3018 3016 3015 3014 3013 3012 3010 3009 3008 3006 3005 3003 3001 2999 2997 2995 2992 2990 2988 2988 2987 2987 2986 2986 2984 2983 2982 2981 2980 2979 2978 2976 2974 2973 2970 2968 2966 2964 2963 2961 2959 2958 2956 2954 2953 2951 2950 2948 2946 2944 2943 2941 2939 2937 2936 2934 2932 2931 2929 2928 2927 2926 2925 2923 2923 2922 2921 2920 2918 2918 2917 2916 2915 2914
3028 3027 3026 3025 3024 3023 3022 3021 3019 3018 3018 3017 3016 3014 3013 3012 3011 3010 3008 3007 3006 3004 3003 3001 2999 2997 2995 2992 2989 2987 2985 2984 2983 2983 2983 2982 2982 2980 2979 2978 2978 2977 2975 2974 2973 2971 2969 2966 2964 2962 2960 2958 2957 2955 2953 2952 2950 2949 2947 2945 2944 2942 2940 2938 2937 2935 2933 2932 2930 2928 2927 2925 2924 2923 2922 2921 2920 2919 2918 2917 2916 2914 2913 2913 2912 2911
3026 3025 3024 3023 3022 3021 3020 3019 3018 3017 3016 3014 3013 3012 3011 3010 3009 3008 3006 3005 3003 3002 3000 2999 2997 2995 2993 2990 2987 2984 2983 2981 2980 2980 2979 2979 2979 2978 2977 2976 2975 2974 2973 2972 2971 2969 2967 2965 2963 2960 2958 2957 2955 2953 2951 2949 2948 2946 2945 2943 2941 2939 2938 2936 2934 2933 2931 2929 2928 2926 2924 2923 2922 2921 2919 2918 2917 2916 2915 2914 2913 2912 2911 2909 2909 2908
3024 3023 3022 3021 3020 3019 3018 3017 3016 3015 3013 3012 3011 3010 3009 3008 3006 3005 3003 3002 3001 2999 2998 2997 2995 2993 2991 2989 2986 2983 2981 2979 2978 2977 2977 2977 2976 2975 2974 2973 2973 2971 2971 2970 2968 2967 2965 2963 2961 2959 2957 2955 2953 2951 2949 2947 2946 2944 2943 2941 2939 2937 2935 2934 2932 2930 2928 2927 2925 2924 2922 2921 2920 2918 2917 2916 2915 2914 2913 2911 2910 2909 2908 2907 2906 2905
3023 3022 3021 3020 3019 3018 3017 3015 3014 3013 3012 3011 3009 3008 3007 3005 3004 3003 3001 2999 2998 2997 2996 2995 2993 2992 2990 2988 2986 2983 2980 2978 2977 2975 2975 2974 2973 2973 2972 2971 2970 2969 2968 2968 2966 2965 2963 2962 2960 2958 2955 2953 2951 2949 2947 2945 2943 2942 2940 2938 2937 2935 2933 2932 2930 2928 2927 2925 2923 2922 2920 2919 2918 2916 2915 2914 2913 2912 2910 2909 2908 2907 2905 2904 2904 2903
3021 3020 3019 3018 3017 3016 3014 3013 3012 3011 3010 3009 3008 3006 3005 3003 3002 3000 2998 2997 2995 2994 2993 2992 2991 2990 2989 2987 2985 2982 2979 2977 2975 2974 2973 2972 2971 2971 2970 2968 2967 2966 2965 2965 2964 2963 2961 2960 2958 2956 2954 2952 2949 2947 2945 2943 2942 2940 2938 2937 2935 2933 2931 2929 2928 2926 2924 2923 2921 2920 2918 2917 2916 2914 2913 2912 2911 2909 2908 2907 2905 2904 2903 2902 2901 2901
3019 3018 3017 3016 3015 3014 3013 3012 3010 3009 3008 3007 3006 3004 3003 3001 3000 2998 2996 2994 2993 2992 2990 2989 2989 2988 2987 2985 2983 2981 2978 2975 2973 2972 2971 2970 2969 2968 2967 2966 2965 2964 2963 2962 2961 2960 2959 2957 2956 2954 2952 2950 2948 2946 2944 2942 2940 2938 2937 2935 2933 2931 2929 2928 2926 2924 2923 2921 2919 2918 2916 2915 2913 2912 2911 2910 2908 2907 2906 2904 2903 2902 2901 2900 2899 2898
3017 3016 3015 3014 3013 3012 3011 3010 3008 3007 3006 3005 3003 3002 3000 2999 2998 2996 2994 2992 2991 2989 2988 2987 2986 2985 2984 2983 2982 2979 2976 2973 2972 2970 2969 2968 2967 2966 2965 2964 2963 2961 2960 2959 2958 2958 2956 2955 2953 2952 2950 2948 2946 2944 2942 2940 2938 2937 2935 2933 2931 2929 2928 2926 2924 2922 2921 2919 2917 2916 2914 2913 2912 2910 2909 2908 2907 2905 2903 2902 2901 2900 2898 2897 2896 2895
3016 3015 3014 3013 3012 3011 3009 3008 3007 3006 3004 3003 3001 3000 2998 2997 2995 2994 2992 2991 2989 2988 2986 2985 2983 2982 2981 2981 2979 2978 2975 2972 2970 2968 2967 2966 2965 2963 2963 2961 2960 2959 2958 2956 2956 2955 2954 2952 2950 2949 2948 2946 2944 2942 2940 2938 2937 2935 2933 2931 2929 2928 2926 2924 2922 2920 2919 2917 2915 2914 2913 2911 2910 2908 2907 2906 2904 2903 2902 2900 2899 2897 2896 2895 2894 2893
3014 3013 3012 3011 3010 3009 3008 3007 3005 3004 3003 3001 2999 2998 2996 2995 2993 2992 2991 2989 2988 2986 2984 2983 2981 2980 2978 2978 2977 2976 2973 2970 2968 2966 2965 2964 2963 2962 2961 2959 2958 2956 2955 2953 2953 2953 2952 2950 2948 2946 2944 2943 2942 2940 2938 2937 2935 2933 2932 2930 2928 2926 2924 2922 2920 2919 2917 2915 2914 2912 2911 2909 2908 2907 2905 2904 2903 2901 2899 2898 2896 2895 2894 2893 2891 2890
3013 3012 3011 3010 3009 3008 3007 3005 3004 3003 3001 2999 2998 2996 2995 2993 2992 2991 2989 2988 2986 2984 2983 2981 2979 2978 2976 2975 2974 2973 2972 2969 2967 2965 2963 2962 2961 2959 2958 2957 2955 2954 2953 2950 2949 2948 2948 2948 2947 2944 2942 2941 2939 2938 2936 2934 2933 2931 2929 2928 2926 2924 2923 2920 2919 2917 2915 2913 2912 2910 2909 2907 2906 2905 2903 2902 2901 2899 2898 2896 2894 2893 2891 2890 2889 2888
3011 3010 3009 3008 3007 3006 3005 3004 3003 3001 3000 2998 2997 2995 2993 2992 2990 2989 2987 2986 2984 2983 2981 2979 2978 2976 2974 2973 2972 2970 2969 2967 2965 2963 2962 2960 2958 2958 2957 2955 2953 2951 2950 2949 2946 2944 2943 2944 2944 2943 2941 2938 2937 2935 2934 2932 2930 2928 2927 2926 2924 2923 2921 2919 2917 2915 2914 2912 2910 2909 2907 2906 2904 2903 2901 2900 2898 2897 2895 2894 2892 2890 2888 2887 2886 2885
3010 3009 3008 3007 3006 3005 3004 3003 3001 3000 2998 2997 2995 2994 2992 2991 2989 2987 2986 2984 2983 2981 2979 2978 2976 2974 2973 2972 2970 2968 2967 2965 2963 2961 2960 2958 2957 2955 2955 2953 2951 2949 2948 2947 2946 2943 2941 2939 2939 2939 2938 2937 2935 2933 2931 2930 2928 2926 2925 2923 2922 2920 2919 2917 2915 2913 2912 2910 2908 2907 2905 2904 2902 2901 2899 2898 2897 2895 2894 2892 2890 2888 2886 2885 2883 2883
3009 3008 3007 3006 3005 3003 3002 3001 3000 2998 2997 2996 2994 2993 2991 2989 2988 2986 2984 2983 2981 2979 2978 2976 2974 2973 2971 2970 2969 2967 2966 2963 2961 2959 2958 2957 2955 2953 2953 2951 2950 2948 2946 2945 2944 2942 2940 2938 2936 2935 2935 2934 2933 2931 2929 2928 2926 2924 2923 2921 2919 2918 2917 2915 2913 2911 2910 2908 2907 2905 2903 2902 2901 2899 2898 2896 2895 2893 2892 2890 2888 2886 2884 2882 2881 2880
3008 3007 3005 3004 3003 3002 3001 3000 2998 2997 2996 2994 2993 2991 2990 2988 2987 2985 2983 2981 2980 2978 2977 2975 2973 2972 2970 2968 2967 2966 2964 2963 2960 2958 2956 2955 2953 2952 2950 2949 2948 2946 2944 2943 2942 2940 2938 2937 2935 2933 2932 2931 2930 2929 2927 2925 2923 2922 2920 2918 2917 2915 2914 2912 2911 2909 2908 2906 2904 2903 2901 2900 2898 2897 2896 2895 2893 2892 2890 2888 2887 2885 2883 2881 2879 2877
3006 3005 3004 3003 3002 3001 3000 2998 2997 2996 2994 2993 2992 2990 2989 2987 2986 2984 2982 2981 2979 2977 2976 2974 2972 2970 2969 2967 2966 2964 2963 2961 2959 2957 2955 2953 2952 2950 2948 2947 2946 2944 2942 2941 2939 2938 2936 2935 2933 2932 2929 2928 2927 2927 2926 2923 2921 2919 2918 2916 2914 2913 2911 2909 2908 2906 2905 2903 2902 2900 2899 2898 2896 2895 2894 2893 2891 2890 2888 2887 2885 2883 2882 2879 2877 2875
3005 3003 3003 3002 3001 3000 2998 2997 2996 2995 2993 2992 2990 2989 2988 2986 2985 2983 2982 2980 2978 2977 2975 2973 2971 2969 2967 2966 2964 2963 2961 2960 2958 2956 2954 2952 2951 2949 2947 2946 2944 2943 2941 2939 2937 2936 2935 2933 2932 2930 2928 2926 2924 2923 2923 2921 2919 2917 2915 2914 2912 2911 2909 2907 2905 2904 2902 2901 2899 2898 2897 2895 2894 2893 2891 2890 2889 2888 2887 2885 2883 2882 2880 2878 2877 2874
3003 3002 3001 3000 2999 2998 2997 2996 2994 2993 2992 2991 2989 2988 2986 2985 2983 2982 2981 2979 2978 2976 2974 2973 2971 2968 2966 2964 2963 2961 2959 2958 2956 2955 2953 2951 2949 2948 2946 2944 2943 2942 2940 2938 2936 2934 2933 2931 2929 2928 2927 2925 2923 2920 2919 2918 2917 2915 2913 2911 2910 2908 2907 2905 2903 2901 2900 2898 2897 2896 2894 2893 2891 2890 2889 2888 2887 2886 2884 2883 2882 2880 2878 2877 2875 2874
3002 3001 3000 2999 2998 2997 2995 2994 2993 2992 2991 2989 2988 2987 2985 2984 2983 2981 2979 2978 2976 2975 2973 2972 2970 2968 2966 2964 2962 2960 2958 2957 2955 2953 2952 2950 2948 2947 2945 2943 2941 2940 2938 2937 2935 2933 2931 2929 2927 2925 2924 2923 2921 2919 2917 2915 2913 2912 2910 2909 2908 2906 2904 2903 2901 2899 2898 2896 2895 2893 2892 2890 2889 2888 2887 2885 2884 2883 2882 2881 2880 2878 2877 2875 2874 2873
3000 2999 2998 2997 2996 2995 2994 2993 2992 2990 2989 2988 2986 2985 2984 2983 2981 2980 2978 2977 2975 2974 2972 2971 2969 2968 2966 2963 2961 2959 2958 2956 2954 2953 2951 2949 2947 2945 2944 2942 2940 2938 2937 2935 2933 2932 2930 2928 2926 2924 2922 2920 2918 2917 2916 2914 2911 2909 2907 2906 2905 2904 2903 2901 2898 2897 2895 2893 2892 2891 2889 2888 2887 2885 2884 2883 2882 2880 2879 2878 2877 2876 2874 2873 2872 2871
2998 2997 2996 2995 2994 2993 2992 2991 2990 2989 2988 2986 2985 2983 2982 2981 2980 2978 2977 2975 2974 2972 2971 2970 2968 2967 2965 2963 2961 2959 2957 2955 2953 2952 2950 2948 2946 2944 2943 2941 2939 2937 2935 2934 2932 2930 2928 2926 2924 2923 2921 2918 2916 2914 2913 2912 2910 2907 2905 2903 2902 2901 2900 2899 2897 2895 2893 2891 2890 2888 2887 2885 2884 2883 2882 2881 2879 2878 2877 2875 2874 2873 2871 2870 2868 2868
2997 2996 2995 2994 2993 2992 2991 2989 2988 2987 2986 2984 2983 2982 2980 2979 2978 2977 2975 2974 2973 2971 2970 2968 2967 2966 2964 2963 2961 2959 2957 2954 2953 2951 2949 2947 2945 2943 2941 2939 2938 2936 2934 2932 2931 2929 2927 2925 2923 2921 2919 2917 2915 2913 2912 2910 2908 2906 2903 2901 2899 2898 2898 2897 2895 2893 2891 2889 2888 2886 2884 2883 2882 2881 2880 2878 2878 2876 2875 2873 2872 2870 2869 2868 2866 2864
2995 2994 2993 2992 2991 2990 2989 2988 2986 2985 2984 2982 2981 2980 2978 2977 2976 2975 2974 2973 2971 2970 2968 2967 2966 2965 2963 2962 2960 2958 2956 2954 2952 2950 2948 2946 2944 2942 2940 2938 2936 2934 2933 2931 2929 2928 2926 2924 2922 2920 2918 2916 2914 2912 2910 2908 2907 2905 2903 2900 2898 2896 2895 2895 2893 2891 2889 2887 2886 2884 2882 2881 2879 2878 2877 2876 2875 2874 2873 2872 2870 2868 2867 2865 2864 2863
2993 2992 2991 2990 2989 2988 2987 2986 2984 2983 2982 2980 2979 2978 2976 2975 2974 2973 2972 2971 2969 2968 2967 2965 2964 2963 2962 2961 2959 2958 2956 2953 2951 2949 2947 2945 2943 2941 2939 2937 2935 2933 2932 2929 2928 2926 2925 2923 2922 2919 2917 2915 2913 2910 2908 2906 2904 2903 2901 2899 2896 2894 2892 2891 2890 2889 2887 2885 2883 2882 2880 2878 2877 2876 2875 2874 2873 2872 2871 2870 2868 2867 2865 2863 2862 2861
2991 2990 2989 2988 2987 2986 2985 2984 2983 2981 2980 2979 2977 2976 2974 2973 2972 2971 2969 2968 2967 2966 2964 2963 2962 2961 2959 2958 2957 2956 2955 2953 2951 2948 2946 2944 2942 2940 2938 2936 2934 2932 2930 2928 2926 2924 2923 2921 2920 2918 2916 2914 2911 2909 2907 2904 2903 2901 2899 2897 2895 2893 2891 2889 2887 2886 2884 2883 2882 2880 2878 2876 2875 2873 2873 2872 2871 2870 2869 2868 2867 2865 2864 2862 2860 2859
2989 2988 2987 2986 2985 2984 2983 2982 2981 2979 2978 2977 2975 2974 2973 2971 2970 2968 2967 2966 2965 2963 2962 2961 2959 2958 2957 2956 2955 2954 2953 2951 2950 2948 2945 2943 2941 2939 2937 2935 2933 2931 2929 2927 2925 2923 2921 2919 2918 2917 2915 2913 2911 2908 2906 2903 2901 2899 2897 2895 2893 2891 2890 2888 2886 2884 2882 2880 2879 2878 2876 2874 2873 2871 2870 2869 2869 2868 2867 2866 2865 2863 2862 2860 2859 2857
2987 2986 2985 2984 2983 2982 2981 2980 2979 2978 2976 2975 2973 2972 2971 2969 2968 2967 2965 2964 2963 2961 2960 2959 2958 2956 2955 2953 2952 2951 2950 2949 2948 2946 2944 2942 2940 2938 2936 2934 2932 2930 2928 2926 2924 2922 2921 2919 2917 2915 2913 2911 2909 2907 2905 2902 2899 2897 2895 2893 2891 2889 2888 2886 2884 2883 2880 2878 2877 2876 2874 2873 2871 2869 2868 2867 2866 2866 2865 2864 2863 2861 2860 2858 2857 2855
2985 2984 2983 2982 2981 2980 2979 2978 2977 2975 2974 2973 2972 2970 2969 2967 2966 2965 2963 2962 2961 2959 2958 2957 2955 2954 2953 2951 2950 2948 2947 2946 2944 2943 2942 2940 2938 2936 2934 2932 2930 2928 2926 2924 2923 2921 2919 2918 2916 2914 2912 2909 2907 2905 2903 2901 2898 2895 2893 2891 2889 2887 2886 2884 2883 2881 2879 2877 2876 2874 2872 2870 2868 2867 2865 2864 2863 2863 2863 2862 2861 2860 2858 2856 2854 2853
2983 2982 2981 2980 2979 2978 2977 2976 2974 2973 2972 2971 2970 2968 2967 2966 2964 2963 2961 2960 2959 2958 2956 2954 2953 2952 2951 2949 2948 2947 2945 2943 2942 2940 2939 2937 2935 2933 2932 2930 2928 2926 2924 2923 2921 2919 2918 2917 2916 2914 2911 2908 2905 2903 2901 2898 2896 2894 2891 2889 2887 2885 2884 2882 2881 2879 2878 2876 2874 2873 2871 2869 2867 2864 2863 2861 2860 2860 2860 2860 2859 2858 2856 2854 2853 2851
2980 2979 2978 2978 2977 2976 2974 2973 2972 2971 2970 2969 2968 2967 2965 2964 2963 2961 2959 2958 2957 2955 2954 2953 2951 2950 2949 2948 2946 2945 2943 2942 2940 2938 2937 2935 2933 2931 2929 2928 2925 2923 2922 2920 2918 2917 2915 2915 2914 2913 2910 2907 2904 2901 2899 2897 2894 2893 2890 2888 2886 2884 2882 2880 2879 2877 2876 2874 2873 2871 2870 2868 2866 2863 2861 2859 2858 2857 2857 2857 2856 2856 2854 2852 2850 2849
2978 2977 2976 2975 2974 2973 2972 2971 2970 2969 2968 2967 2966 2964 2963 2962 2961 2959 2958 2956 2955 2953 2952 2951 2949 2948 2947 2945 2944 2943 2941 2940 2938 2936 2935 2933 2931 2929 2927 2925 2923 2921 2918 2917 2915 2914 2912 2911 2911 2911 2910 2907 2904 2901 2898 2895 2893 2891 2889 2887 2885 2883 2881 2879 2877 2875 2874 2872 2870 2869 2868 2866 2864 2862 2860 2858 2856 2854 2854 2854 2853 2853 2852 2850 2848 2847
2976 2975 2974 2973 2972 2971 2970 2969 2968 2967 2966 2965 2963 2963 2961 2960 2958 2957 2956 2954 2953 2952 2950 2949 2948 2946 2945 2943 2942 2941 2939 2938 2936 2934 2933 2931 2929 2927 2925 2923 2920 2918 2916 2913 2912 2910 2908 2907 2907 2908 2908 2907 2904 2901 2898 2894 2891 2889 2887 2885 2884 2882 2879 2877 2875 2873 2872 2870 2868 2867 2865 2864 2862 2860 2858 2856 2854 2852 2851 2850 2850 2850 2849 2848 2846 2845